| time (UTC) | temp F | wind direction | speed MPH | gust MPH | rain 1hr in | rain 24hr in | rain mn in | humidity % | barometer mb |
| 20260508182458 | 60 | 300 | 7.0 | 14.0 | 0.00 | 0.00 | 0.00 | 52 | 1011.5 |
| 20260508181958 | 60 | 275 | 8.0 | 14.0 | 0.00 | 0.00 | 0.00 | 53 | 1011.5 |
| 20260508181459 | 59 | 261 | 7.0 | 14.0 | 0.00 | 0.00 | 0.00 | 52 | 1011.5 |
| 20260508180958 | 59 | 292 | 8.0 | 14.0 | 0.00 | 0.00 | 0.00 | 57 | 1011.6 |
| 20260508180458 | 58 | 248 | 10.0 | 19.0 | 0.00 | 0.00 | 0.00 | 54 | 1011.8 |
| 20260508175959 | 58 | 50 | 10.0 | 19.0 | 0.00 | 0.00 | 0.00 | 53 | 1011.6 |
| 20260508175458 | 58 | 50 | 9.0 | 15.0 | 0.00 | 0.00 | 0.00 | 52 | 1011.6 |
| 20260508174958 | 58 | 50 | 9.0 | 14.0 | 0.00 | 0.00 | 0.00 | 53 | 1011.6 |
| 20260508174500 | 58 | 50 | 11.0 | 20.0 | 0.00 | 0.00 | 0.00 | 52 | 1011.6 |
| 20260508173958 | 59 | 50 | 13.0 | 24.0 | 0.00 | 0.00 | 0.00 | 51 | 1011.7 |
| 20260508173459 | 59 | 50 | 13.0 | 24.0 | 0.00 | 0.00 | 0.00 | 50 | 1011.7 |
| 20260508172959 | 60 | 50 | 12.0 | 21.0 | 0.00 | 0.00 | 0.00 | 52 | 1011.5 |
| 20260508171958 | 60 | 50 | 11.0 | 21.0 | 0.00 | 0.00 | 0.00 | 50 | 1011.7 |
| 20260508171458 | 60 | 50 | 11.0 | 21.0 | 0.00 | 0.00 | 0.00 | 51 | 1011.7 |
| 20260508165959 | 58 | 50 | 11.0 | 22.0 | 0.00 | 0.00 | 0.00 | 54 | 1012.1 |
| 20260508165458 | 58 | 50 | 11.0 | 22.0 | 0.00 | 0.00 | 0.00 | 51 | 1012.2 |
| 20260508164958 | 59 | 50 | 9.0 | 22.0 | 0.00 | 0.00 | 0.00 | 54 | 1012.2 |
| 20260508164459 | 59 | 50 | 11.0 | 19.0 | 0.00 | 0.00 | 0.00 | 55 | 1012.2 |
| 20260508163958 | 58 | 50 | 13.0 | 21.0 | 0.00 | 0.00 | 0.00 | 54 | 1012.4 |
| 20260508162959 | 58 | 50 | 11.0 | 21.0 | 0.00 | 0.00 | 0.00 | 52 | 1012.4 |
| 20260508162458 | 58 | 257 | 11.0 | 20.0 | 0.00 | 0.00 | 0.00 | 55 | 1012.4 |
| 20260508161958 | 57 | 214 | 12.0 | 20.0 | 0.00 | 0.00 | 0.00 | 53 | 1012.6 |
| 20260508161459 | 57 | 50 | 10.0 | 20.0 | 0.00 | 0.00 | 0.00 | 53 | 1012.6 |
| 20260508160958 | 58 | 197 | 8.0 | 17.0 | 0.00 | 0.00 | 0.00 | 54 | 1012.7 |
| 20260508155959 | 57 | 213 | 9.0 | 14.0 | 0.00 | 0.00 | 0.00 | 58 | 1012.8 |
| 20260508155458 | 57 | 164 | 7.0 | 13.0 | 0.00 | 0.00 | 0.00 | 58 | 1012.7 |
| 20260508154958 | 56 | 184 | 7.0 | 16.0 | 0.00 | 0.00 | 0.00 | 59 | 1012.7 |
| 20260508154459 | 56 | 224 | 9.0 | 16.0 | 0.00 | 0.00 | 0.00 | 59 | 1012.7 |
| 20260508153458 | 55 | 217 | 8.0 | 15.0 | 0.00 | 0.00 | 0.00 | 62 | 1013.1 |
| 20260508152958 | 55 | 248 | 8.0 | 15.0 | 0.00 | 0.00 | 0.00 | 58 | 1013.1 |
| 20260508152458 | 54 | 215 | 8.0 | 15.0 | 0.00 | 0.00 | 0.00 | 64 | 1013.2 |
| 20260508151958 | 54 | 190 | 7.0 | 13.0 | 0.00 | 0.00 | 0.00 | 62 | 1013.3 |
| 20260508151459 | 54 | 257 | 8.0 | 15.0 | 0.00 | 0.00 | 0.00 | 65 | 1013.4 |
| 20260508150958 | 53 | 248 | 8.0 | 15.0 | 0.00 | 0.00 | 0.00 | 64 | 1013.5 |
| 20260508145959 | 52 | 265 | 5.0 | 11.0 | 0.00 | 0.00 | 0.00 | 67 | 1013.5 |
| 20260508145458 | 51 | 265 | 6.0 | 14.0 | 0.00 | 0.00 | 0.00 | 69 | 1013.6 |
| 20260508144958 | 51 | 270 | 7.0 | 14.0 | 0.00 | 0.00 | 0.00 | 67 | 1013.6 |
| 20260508144459 | 51 | 251 | 8.0 | 11.0 | 0.00 | 0.00 | 0.00 | 68 | 1013.7 |
| 20260508143957 | 50 | 248 | 8.0 | 11.0 | 0.00 | 0.00 | 0.00 | 68 | 1013.8 |
| 20260508143458 | 50 | 252 | 8.0 | 15.0 | 0.00 | 0.00 | 0.00 | 68 | 1013.9 |
| 20260508142959 | 50 | 232 | 8.0 | 15.0 | 0.00 | 0.00 | 0.00 | 67 | 1013.9 |
| 20260508142458 | 50 | 250 | 7.0 | 11.0 | 0.00 | 0.00 | 0.00 | 69 | 1013.8 |
| 20260508141958 | 50 | 252 | 7.0 | 12.0 | 0.00 | 0.00 | 0.00 | 69 | 1013.8 |
| 20260508141458 | 50 | 283 | 7.0 | 11.0 | 0.00 | 0.00 | 0.00 | 68 | 1013.8 |
| 20260508140958 | 50 | 265 | 7.0 | 11.0 | 0.00 | 0.00 | 0.00 | 69 | 1013.8 |
| 20260508140458 | 50 | 251 | 8.0 | 13.0 | 0.00 | 0.00 | 0.00 | 69 | 1013.8 |
| 20260508135959 | 50 | 224 | 8.0 | 13.0 | 0.00 | 0.00 | 0.00 | 68 | 1013.7 |
| 20260508135458 | 50 | 253 | 7.0 | 11.0 | 0.00 | 0.00 | 0.00 | 67 | 1013.8 |
| 20260508134958 | 50 | 258 | 7.0 | 10.0 | 0.00 | 0.00 | 0.00 | 67 | 1013.8 |
| 20260508134458 | 50 | 245 | 7.0 | 10.0 | 0.00 | 0.00 | 0.00 | 69 | 1013.7 |
| 20260508133458 | 50 | 239 | 6.0 | 10.0 | 0.00 | 0.00 | 0.00 | 68 | 1013.8 |
| 20260508132958 | 50 | 237 | 6.0 | 11.0 | 0.00 | 0.00 | 0.00 | 68 | 1013.9 |
| 20260508132458 | 50 | 237 | 7.0 | 11.0 | 0.00 | 0.00 | 0.00 | 69 | 1013.8 |
| 20260508131958 | 50 | 237 | 7.0 | 11.0 | 0.00 | 0.00 | 0.00 | 68 | 1013.8 |
| 20260508131459 | 50 | 213 | 6.0 | 12.0 | 0.00 | 0.00 | 0.00 | 70 | 1013.8 |
| 20260508130958 | 50 | 257 | 6.0 | 10.0 | 0.00 | 0.00 | 0.00 | 68 | 1013.7 |
| 20260508130458 | 50 | 258 | 6.0 | 10.0 | 0.00 | 0.00 | 0.00 | 71 | 1013.8 |
| 20260508125959 | 50 | 182 | 5.0 | 10.0 | 0.00 | 0.00 | 0.00 | 71 | 1013.8 |
| 20260508125458 | 51 | 50 | 4.0 | 10.0 | 0.00 | 0.00 | 0.00 | 74 | 1013.6 |
| 20260508124459 | 50 | 50 | 4.0 | 9.0 | 0.00 | 0.00 | 0.00 | 75 | 1013.5 |
| 20260508123958 | 50 | 50 | 5.0 | 9.0 | 0.00 | 0.00 | 0.00 | 77 | 1013.6 |
| 20260508123458 | 49 | 50 | 4.0 | 9.0 | 0.00 | 0.00 | 0.00 | 77 | 1013.7 |
| 20260508122458 | 49 | 50 | 3.0 | 6.0 | 0.00 | 0.00 | 0.00 | 80 | 1013.5 |
| 20260508121958 | 48 | 216 | 3.0 | 6.0 | 0.00 | 0.00 | 0.00 | 81 | 1013.7 |
| 20260508121459 | 48 | 200 | 3.0 | 5.0 | 0.00 | 0.00 | 0.00 | 79 | 1013.7 |
| 20260508120958 | 48 | 200 | 2.0 | 5.0 | 0.00 | 0.00 | 0.00 | 81 | 1013.7 |
| 20260508115959 | 47 | 50 | 3.0 | 6.0 | 0.00 | 0.00 | 0.00 | 82 | 1013.7 |
| 20260508115458 | 47 | 235 | 4.0 | 6.0 | 0.00 | 0.00 | 0.00 | 83 | 1013.7 |
| 20260508114958 | 46 | 201 | 3.0 | 6.0 | 0.00 | 0.00 | 0.00 | 84 | 1013.7 |
| 20260508114459 | 46 | 225 | 3.0 | 5.0 | 0.00 | 0.00 | 0.00 | 85 | 1013.6 |
| 20260508113958 | 45 | 221 | 3.0 | 5.0 | 0.00 | 0.00 | 0.00 | 87 | 1013.6 |
| 20260508112959 | 44 | 205 | 1.0 | 5.0 | 0.00 | 0.00 | 0.00 | 90 | 1013.5 |
| 20260508112458 | 43 | 215 | 0.0 | 4.0 | 0.00 | 0.00 | 0.00 | 91 | 1013.6 |
| 20260508111958 | 42 | 219 | 1.0 | 3.0 | 0.00 | 0.00 | 0.00 | 92 | 1013.4 |
| 20260508111458 | 42 | 50 | 1.0 | 3.0 | 0.00 | 0.00 | 0.00 | 92 | 1013.5 |
| 20260508110958 | 41 | 50 | 1.0 | 3.0 | 0.00 | 0.00 | 0.00 | 92 | 1013.4 |
| 20260508110458 | 40 | 50 | 1.0 | 3.0 | 0.00 | 0.00 | 0.00 | 93 | 1013.3 |
| 20260508105959 | 40 | 50 | 0.0 | 2.0 | 0.00 | 0.00 | 0.00 | 93 | 1013.3 |
| 20260508105458 | 39 | 50 | 1.0 | 2.0 | 0.00 | 0.00 | 0.00 | 93 | 1013.4 |
| 20260508104958 | 38 | 50 | 0.0 | 2.0 | 0.00 | 0.00 | 0.00 | 93 | 1013.3 |
| 20260508104458 | 38 | 50 | 0.0 | 2.0 | 0.00 | 0.00 | 0.00 | 92 | 1013.2 |
| 20260508103958 | 37 | 50 | 0.0 | 2.0 | 0.00 | 0.00 | 0.00 | 92 | 1013.1 |
| 20260508103458 | 37 | 50 | 0.0 | 1.0 | 0.00 | 0.00 | 0.00 | 92 | 1013.2 |
| 20260508102958 | 37 | 50 | 0.0 | 2.0 | 0.00 | 0.00 | 0.00 | 92 | 1013.2 |
| 20260508100458 | 37 | 50 | 0.0 | 0.0 | 0.00 | 0.00 | 0.00 | 90 | 1013.1 |
| 20260508095958 | 37 | 50 | 0.0 | 0.0 | 0.00 | 0.00 | 0.00 | 89 | 1013.0 |
| 20260508095458 | 37 | 50 | 0.0 | 0.0 | 0.00 | 0.00 | 0.00 | 89 | 1012.9 |
| 20260508094459 | 38 | 50 | 0.0 | 0.0 | 0.00 | 0.00 | 0.00 | 89 | 1012.9 |
| 20260508093958 | 38 | 50 | 0.0 | 0.0 | 0.00 | 0.00 | 0.00 | 89 | 1012.8 |
| 20260508093458 | 38 | 50 | 0.0 | 0.0 | 0.00 | 0.00 | 0.00 | 89 | 1012.8 |
| 20260508092959 | 39 | 50 | 0.0 | 1.0 | 0.00 | 0.00 | 0.00 | 89 | 1012.8 |
| 20260508092458 | 39 | 50 | 0.0 | 1.0 | 0.00 | 0.00 | 0.00 | 89 | 1012.7 |
| 20260508091958 | 39 | 50 | 0.0 | 2.0 | 0.00 | 0.00 | 0.00 | 89 | 1012.8 |
| 20260508091459 | 39 | 50 | 1.0 | 2.0 | 0.00 | 0.00 | 0.00 | 90 | 1012.7 |
| 20260508090958 | 39 | 50 | 1.0 | 2.0 | 0.00 | 0.00 | 0.00 | 90 | 1012.7 |
| 20260508090458 | 39 | 50 | 0.0 | 2.0 | 0.00 | 0.00 | 0.00 | 89 | 1012.7 |
| 20260508090005 | 39 | 50 | 1.0 | 2.0 | 0.00 | 0.00 | 0.00 | 89 | 1012.7 |
| 20260508085458 | 39 | 50 | 1.0 | 4.0 | 0.00 | 0.00 | 0.00 | 88 | 1012.6 |
| 20260508084958 | 39 | 50 | 1.0 | 4.0 | 0.00 | 0.00 | 0.00 | 88 | 1012.6 |
| 20260508084458 | 39 | 50 | 0.0 | 0.0 | 0.00 | 0.00 | 0.00 | 87 | 1012.5 |
| 20260508082958 | 41 | 50 | 0.0 | 0.0 | 0.00 | 0.00 | 0.00 | 85 | 1012.5 |
| 20260508081958 | 42 | 50 | 0.0 | 0.0 | 0.00 | 0.00 | 0.00 | 85 | 1012.5 |
| 20260508081458 | 42 | 50 | 0.0 | 0.0 | 0.00 | 0.00 | 0.00 | 85 | 1012.5 |
| 20260508080958 | 42 | 50 | 0.0 | 0.0 | 0.00 | 0.00 | 0.00 | 85 | 1012.5 |
| 20260508080458 | 42 | 50 | 0.0 | 0.0 | 0.00 | 0.00 | 0.00 | 85 | 1012.5 |
| 20260508075958 | 42 | 50 | 0.0 | 0.0 | 0.00 | 0.00 | 0.00 | 84 | 1012.4 |
| 20260508075458 | 42 | 50 | 0.0 | 0.0 | 0.00 | 0.00 | 0.00 | 84 | 1012.3 |
| 20260508074958 | 43 | 50 | 0.0 | 0.0 | 0.00 | 0.00 | 0.00 | 84 | 1012.3 |
| 20260508074459 | 43 | 50 | 0.0 | 0.0 | 0.00 | 0.00 | 0.00 | 84 | 1012.2 |
| 20260508073958 | 43 | 50 | 0.0 | 0.0 | 0.00 | 0.00 | 0.00 | 84 | 1012.2 |
| 20260508073458 | 43 | 50 | 0.0 | 3.0 | 0.00 | 0.00 | 0.00 | 84 | 1012.0 |
| 20260508072958 | 43 | 50 | 2.0 | 3.0 | 0.00 | 0.00 | 0.00 | 84 | 1012.1 |
| 20260508072458 | 43 | 50 | 2.0 | 4.0 | 0.00 | 0.00 | 0.00 | 84 | 1012.0 |
| 20260508071958 | 43 | 50 | 3.0 | 4.0 | 0.00 | 0.00 | 0.00 | 83 | 1012.0 |
| 20260508071458 | 43 | 50 | 3.0 | 4.0 | 0.00 | 0.00 | 0.00 | 83 | 1011.9 |
| 20260508070958 | 44 | 50 | 2.0 | 4.0 | 0.00 | 0.00 | 0.00 | 83 | 1011.9 |
| 20260508070457 | 44 | 50 | 2.0 | 4.0 | 0.00 | 0.00 | 0.00 | 83 | 1011.9 |
| 20260508070000 | 44 | 50 | 2.0 | 4.0 | 0.00 | 0.00 | 0.00 | 82 | 1011.8 |
| 20260508065459 | 44 | 50 | 2.0 | 4.0 | 0.00 | 0.00 | 0.00 | 81 | 1011.7 |
| 20260508064959 | 45 | 50 | 2.0 | 4.0 | 0.00 | 0.00 | 0.00 | 81 | 1011.8 |
| 20260508063959 | 45 | 50 | 2.0 | 4.0 | 0.00 | 0.00 | 0.00 | 80 | 1011.8 |
| 20260508063459 | 46 | 50 | 2.0 | 3.0 | 0.00 | 0.00 | 0.00 | 80 | 1011.8 |
| 20260508063000 | 46 | 50 | 2.0 | 4.0 | 0.00 | 0.00 | 0.00 | 79 | 1011.7 |
| 20260508062459 | 46 | 352 | 3.0 | 9.0 | 0.00 | 0.00 | 0.00 | 79 | 1011.7 |
| 20260508061959 | 46 | 2 | 5.0 | 10.0 | 0.00 | 0.00 | 0.00 | 78 | 1011.7 |
| 20260508061459 | 47 | 7 | 5.0 | 14.0 | 0.00 | 0.00 | 0.00 | 78 | 1011.8 |
| 20260508060959 | 47 | 1 | 8.0 | 15.0 | 0.00 | 0.00 | 0.00 | 78 | 1011.9 |
| 20260508060459 | 48 | 328 | 10.0 | 15.0 | 0.00 | 0.00 | 0.00 | 78 | 1011.8 |
| 20260508060001 | 48 | 329 | 9.0 | 16.0 | 0.00 | 0.00 | 0.00 | 77 | 1011.7 |
| 20260508055458 | 49 | 351 | 9.0 | 16.0 | 0.00 | 0.01 | 0.00 | 75 | 1011.6 |
| 20260508054958 | 50 | 345 | 9.0 | 15.0 | 0.00 | 0.01 | 0.00 | 71 | 1011.5 |
| 20260508054500 | 50 | 336 | 11.0 | 17.0 | 0.00 | 0.01 | 0.00 | 69 | 1011.8 |
| 20260508053959 | 50 | 336 | 12.0 | 19.0 | 0.00 | 0.01 | 0.00 | 68 | 1011.9 |
| 20260508053459 | 51 | 331 | 9.0 | 19.0 | 0.00 | 0.01 | 0.00 | 67 | 1011.8 |
| 20260508053000 | 51 | 288 | 7.0 | 15.0 | 0.00 | 0.01 | 0.00 | 67 | 1011.8 |
| 20260508052459 | 51 | 323 | 7.0 | 20.0 | 0.00 | 0.01 | 0.00 | 68 | 1011.8 |
| 20260508051959 | 51 | 325 | 7.0 | 20.0 | 0.00 | 0.01 | 0.00 | 67 | 1011.6 |
| 20260508051500 | 51 | 325 | 6.0 | 11.0 | 0.00 | 0.01 | 0.00 | 68 | 1011.4 |
| 20260508050959 | 51 | 330 | 4.0 | 8.0 | 0.00 | 0.01 | 0.00 | 68 | 1011.0 |
| 20260508050459 | 51 | 321 | 4.0 | 8.0 | 0.00 | 0.01 | 0.00 | 68 | 1010.6 |
| 20260508050000 | 51 | 348 | 4.0 | 8.0 | 0.00 | 0.01 | 0.00 | 66 | 1010.3 |
| 20260508045459 | 51 | 26 | 4.0 | 10.0 | 0.00 | 0.02 | 0.00 | 66 | 1010.2 |
| 20260508044959 | 52 | 21 | 3.0 | 10.0 | 0.00 | 0.02 | 0.00 | 65 | 1010.2 |
| 20260508044500 | 52 | 356 | 3.0 | 5.0 | 0.00 | 0.02 | 0.00 | 65 | 1010.1 |
| 20260508043959 | 52 | 359 | 4.0 | 10.0 | 0.00 | 0.02 | 0.00 | 65 | 1010.1 |
| 20260508043459 | 53 | 8 | 4.0 | 10.0 | 0.00 | 0.02 | 0.00 | 63 | 1010.0 |
| 20260508043000 | 53 | 17 | 3.0 | 5.0 | 0.00 | 0.02 | 0.00 | 63 | 1010.0 |
| 20260508042459 | 53 | 26 | 2.0 | 5.0 | 0.00 | 0.02 | 0.00 | 61 | 1010.0 |
| 20260508041459 | 53 | 300 | 4.0 | 8.0 | 0.00 | 0.02 | 0.00 | 61 | 1010.1 |
| 20260508040959 | 53 | 317 | 4.0 | 9.0 | 0.00 | 0.02 | 0.00 | 61 | 1010.0 |
| 20260508040004 | 53 | 338 | 7.0 | 20.0 | 0.00 | 0.02 | 0.00 | 61 | 1010.2 |
| 20260508035459 | 52 | 327 | 6.0 | 12.0 | 0.00 | 0.02 | 0.02 | 64 | 1010.0 |
| 20260508034959 | 51 | 294 | 4.0 | 9.0 | 0.00 | 0.02 | 0.02 | 67 | 1009.9 |
| 20260508034459 | 51 | 300 | 2.0 | 5.0 | 0.00 | 0.02 | 0.02 | 68 | 1009.5 |
| 20260508032959 | 51 | 290 | 0.0 | 0.0 | 0.00 | 0.02 | 0.02 | 72 | 1009.3 |
| 20260508032459 | 51 | 290 | 0.0 | 0.0 | 0.00 | 0.02 | 0.02 | 76 | 1009.3 |
| 20260508031459 | 52 | 290 | 0.0 | 0.0 | 0.00 | 0.02 | 0.02 | 75 | 1009.3 |
| 20260508030959 | 52 | 290 | 0.0 | 0.0 | 0.00 | 0.02 | 0.02 | 73 | 1009.3 |
| 20260508030458 | 52 | 290 | 0.0 | 0.0 | 0.00 | 0.02 | 0.02 | 67 | 1009.3 |
| 20260508025458 | 53 | 288 | 0.0 | 0.0 | 0.00 | 0.02 | 0.02 | 66 | 1009.4 |
| 20260508024959 | 53 | 287 | 0.0 | 0.0 | 0.00 | 0.02 | 0.02 | 64 | 1009.3 |
| 20260508024459 | 53 | 287 | 0.0 | 0.0 | 0.00 | 0.02 | 0.02 | 64 | 1009.2 |
| 20260508023958 | 53 | 287 | 0.0 | 0.0 | 0.00 | 0.02 | 0.02 | 64 | 1009.3 |
| 20260508023459 | 53 | 287 | 0.0 | 0.0 | 0.00 | 0.02 | 0.02 | 65 | 1009.4 |
| 20260508022959 | 53 | 287 | 0.0 | 0.0 | 0.00 | 0.02 | 0.02 | 67 | 1009.4 |
| 20260508022458 | 53 | 287 | 0.0 | 0.0 | 0.00 | 0.02 | 0.02 | 69 | 1009.4 |
| 20260508021959 | 53 | 287 | 0.0 | 0.0 | 0.00 | 0.02 | 0.02 | 62 | 1009.3 |
| 20260508021500 | 53 | 287 | 0.0 | 0.0 | 0.00 | 0.02 | 0.02 | 62 | 1009.2 |
| 20260508020959 | 53 | 287 | 0.0 | 0.0 | 0.00 | 0.02 | 0.02 | 62 | 1009.2 |
| 20260508020459 | 53 | 286 | 0.0 | 0.0 | 0.00 | 0.02 | 0.02 | 63 | 1009.2 |
| 20260508020000 | 53 | 286 | 0.0 | 0.0 | 0.00 | 0.02 | 0.02 | 63 | 1009.1 |
| 20260508015458 | 53 | 286 | 0.0 | 0.0 | 0.00 | 0.02 | 0.02 | 66 | 1009.2 |
| 20260508014958 | 53 | 286 | 0.0 | 0.0 | 0.00 | 0.02 | 0.02 | 65 | 1009.1 |
| 20260508013959 | 53 | 286 | 0.0 | 0.0 | 0.00 | 0.02 | 0.02 | 69 | 1009.0 |
| 20260508012458 | 53 | 286 | 0.0 | 0.0 | 0.00 | 0.02 | 0.02 | 63 | 1008.9 |
| 20260508011459 | 54 | 286 | 0.0 | 0.0 | 0.00 | 0.02 | 0.02 | 64 | 1008.9 |
| 20260508010000 | 55 | 286 | 0.0 | 0.0 | 0.00 | 0.02 | 0.02 | 62 | 1008.6 |
| 20260508005459 | 55 | 286 | 0.0 | 0.0 | 0.00 | 0.02 | 0.02 | 59 | 1008.6 |
| 20260508004459 | 55 | 286 | 0.0 | 0.0 | 0.00 | 0.02 | 0.02 | 61 | 1008.5 |
| 20260508003959 | 55 | 286 | 0.0 | 0.0 | 0.00 | 0.02 | 0.02 | 60 | 1008.5 |
| 20260508003458 | 55 | 286 | 0.0 | 0.0 | 0.00 | 0.02 | 0.02 | 55 | 1008.5 |
| 20260508002959 | 56 | 286 | 0.0 | 0.0 | 0.00 | 0.02 | 0.02 | 57 | 1008.4 |
| 20260508002458 | 56 | 286 | 0.0 | 0.0 | 0.00 | 0.02 | 0.02 | 54 | 1008.3 |
| 20260508001958 | 57 | 286 | 0.0 | 0.0 | 0.00 | 0.02 | 0.02 | 56 | 1008.4 |
| 20260508001500 | 57 | 286 | 0.0 | 2.0 | 0.00 | 0.02 | 0.02 | 53 | 1008.3 |
| 20260508000958 | 57 | 286 | 1.0 | 2.0 | 0.00 | 0.02 | 0.02 | 53 | 1008.2 |
| 20260508000458 | 57 | 286 | 2.0 | 3.0 | 0.00 | 0.02 | 0.02 | 48 | 1008.2 |
| 20260508000000 | 57 | 286 | 2.0 | 4.0 | 0.00 | 0.02 | 0.02 | 50 | 1008.2 |
| 20260507235459 | 58 | 286 | 2.0 | 4.0 | 0.00 | 0.13 | 0.02 | 49 | 1008.1 |
| 20260507234959 | 58 | 288 | 2.0 | 4.0 | 0.00 | 0.13 | 0.02 | 49 | 1008.2 |
| 20260507234459 | 58 | 288 | 2.0 | 4.0 | 0.00 | 0.13 | 0.02 | 49 | 1008.2 |
| 20260507233459 | 58 | 289 | 2.0 | 4.0 | 0.00 | 0.13 | 0.02 | 49 | 1008.0 |
| 20260507232959 | 59 | 289 | 2.0 | 4.0 | 0.00 | 0.13 | 0.02 | 45 | 1008.0 |
| 20260507232458 | 59 | 294 | 2.0 | 9.0 | 0.00 | 0.13 | 0.02 | 45 | 1007.9 |
| 20260507231958 | 59 | 295 | 3.0 | 9.0 | 0.00 | 0.13 | 0.02 | 46 | 1007.9 |
| 20260507231459 | 59 | 50 | 3.0 | 8.0 | 0.00 | 0.13 | 0.02 | 44 | 1007.8 |
| 20260507230959 | 60 | 50 | 3.0 | 8.0 | 0.00 | 0.13 | 0.02 | 44 | 1007.9 |
| 20260507230458 | 60 | 50 | 3.0 | 5.0 | 0.00 | 0.13 | 0.02 | 44 | 1007.9 |
| 20260507230000 | 60 | 50 | 3.0 | 6.0 | 0.00 | 0.13 | 0.02 | 44 | 1008.0 |
| 20260507225458 | 60 | 50 | 3.0 | 6.0 | 0.00 | 0.20 | 0.02 | 44 | 1007.9 |
| 20260507224958 | 60 | 50 | 3.0 | 6.0 | 0.00 | 0.20 | 0.02 | 43 | 1007.9 |
| 20260507224458 | 60 | 50 | 4.0 | 6.0 | 0.00 | 0.20 | 0.02 | 44 | 1007.8 |
| 20260507223957 | 60 | 50 | 4.0 | 6.0 | 0.00 | 0.20 | 0.02 | 45 | 1007.8 |
| 20260507223457 | 60 | 50 | 4.0 | 9.0 | 0.00 | 0.20 | 0.02 | 42 | 1007.9 |
| 20260507222958 | 61 | 50 | 4.0 | 9.0 | 0.00 | 0.20 | 0.02 | 41 | 1007.8 |
| 20260507222457 | 61 | 50 | 3.0 | 8.0 | 0.00 | 0.20 | 0.02 | 43 | 1007.9 |
| 20260507221958 | 61 | 50 | 4.0 | 8.0 | 0.00 | 0.20 | 0.02 | 41 | 1007.9 |
| 20260507220958 | 61 | 50 | 5.0 | 11.0 | 0.00 | 0.20 | 0.02 | 42 | 1007.9 |
| 20260507220457 | 61 | 50 | 6.0 | 11.0 | 0.00 | 0.20 | 0.02 | 43 | 1007.9 |
| 20260507215958 | 62 | 50 | 7.0 | 15.0 | 0.00 | 0.25 | 0.02 | 41 | 1007.9 |
| 20260507215457 | 62 | 50 | 5.0 | 15.0 | 0.00 | 0.25 | 0.02 | 42 | 1008.1 |
| 20260507214458 | 61 | 50 | 4.0 | 9.0 | 0.00 | 0.25 | 0.02 | 42 | 1008.1 |
| 20260507212958 | 62 | 50 | 9.0 | 18.0 | 0.00 | 0.25 | 0.02 | 39 | 1008.0 |
| 20260507211958 | 61 | 50 | 6.0 | 16.0 | 0.00 | 0.25 | 0.02 | 43 | 1008.0 |
| 20260507211458 | 60 | 50 | 4.0 | 10.0 | 0.00 | 0.25 | 0.02 | 45 | 1008.0 |
| 20260507210958 | 60 | 50 | 4.0 | 12.0 | 0.00 | 0.25 | 0.02 | 45 | 1007.9 |
| 20260507210500 | 60 | 50 | 7.0 | 12.0 | 0.00 | 0.25 | 0.02 | 42 | 1008.0 |
| 20260507205959 | 60 | 50 | 8.0 | 14.0 | 0.00 | 0.27 | 0.02 | 41 | 1008.0 |
| 20260507205458 | 62 | 50 | 8.0 | 15.0 | 0.00 | 0.27 | 0.02 | 40 | 1007.9 |
| 20260507204958 | 62 | 50 | 7.0 | 15.0 | 0.00 | 0.27 | 0.02 | 43 | 1007.9 |
| 20260507204458 | 62 | 50 | 8.0 | 16.0 | 0.00 | 0.27 | 0.02 | 43 | 1007.9 |
| 20260507203957 | 62 | 50 | 9.0 | 16.0 | 0.00 | 0.27 | 0.02 | 42 | 1007.9 |
| 20260507203458 | 62 | 50 | 9.0 | 15.0 | 0.00 | 0.27 | 0.02 | 41 | 1007.9 |
| 20260507202958 | 62 | 50 | 9.0 | 16.0 | 0.00 | 0.27 | 0.02 | 41 | 1007.9 |
| 20260507202458 | 62 | 50 | 9.0 | 16.0 | 0.00 | 0.27 | 0.02 | 44 | 1007.8 |
| 20260507201958 | 62 | 50 | 8.0 | 13.0 | 0.00 | 0.27 | 0.02 | 41 | 1007.9 |
| 20260507201501 | 62 | 50 | 8.0 | 14.0 | 0.00 | 0.27 | 0.02 | 43 | 1007.9 |
| 20260507200457 | 62 | 50 | 9.0 | 15.0 | 0.00 | 0.27 | 0.02 | 43 | 1008.0 |
| 20260507195959 | 62 | 50 | 8.0 | 15.0 | 0.00 | 0.27 | 0.02 | 41 | 1008.0 |
| 20260507195458 | 62 | 50 | 7.0 | 12.0 | 0.00 | 0.27 | 0.02 | 43 | 1008.1 |
| 20260507194958 | 62 | 50 | 6.0 | 11.0 | 0.00 | 0.27 | 0.02 | 45 | 1008.2 |
| 20260507194458 | 62 | 50 | 7.0 | 12.0 | 0.00 | 0.27 | 0.02 | 44 | 1008.1 |
| 20260507193958 | 62 | 50 | 8.0 | 17.0 | 0.00 | 0.27 | 0.02 | 43 | 1008.2 |
| 20260507193458 | 62 | 50 | 8.0 | 17.0 | 0.00 | 0.27 | 0.02 | 42 | 1008.3 |
| 20260507192958 | 62 | 50 | 5.0 | 11.0 | 0.00 | 0.27 | 0.02 | 45 | 1008.3 |
| 20260507192458 | 62 | 50 | 6.0 | 14.0 | 0.00 | 0.27 | 0.02 | 44 | 1008.4 |
| 20260507191458 | 62 | 50 | 6.0 | 14.0 | 0.00 | 0.27 | 0.02 | 42 | 1008.4 |
| 20260507190957 | 62 | 50 | 7.0 | 12.0 | 0.00 | 0.27 | 0.02 | 46 | 1008.5 |
| 20260507190458 | 62 | 50 | 7.0 | 12.0 | 0.00 | 0.27 | 0.02 | 42 | 1008.5 |
| 20260507185958 | 62 | 50 | 6.0 | 12.0 | 0.00 | 0.27 | 0.02 | 43 | 1008.6 |
| 20260507185458 | 62 | 50 | 6.0 | 11.0 | 0.00 | 0.27 | 0.02 | 42 | 1008.6 |
| 20260507184458 | 62 | 50 | 6.0 | 13.0 | 0.00 | 0.27 | 0.02 | 45 | 1008.7 |
| 20260507183957 | 61 | 50 | 8.0 | 17.0 | 0.00 | 0.27 | 0.02 | 46 | 1008.8 |
| 20260507183457 | 61 | 50 | 10.0 | 17.0 | 0.00 | 0.27 | 0.02 | 44 | 1008.9 |
| 20260507182958 | 61 | 50 | 9.0 | 15.0 | 0.00 | 0.27 | 0.02 | 43 | 1008.9 |